,,,PA_Meas_PMT16A,,PR_Meas_QMR101_102,,RH_Meas_QMH101,,SR_Meas_QMS101,,TA_Meas_QMH101,,GenWind,,GenWind,
date,time,status,PA,status,PR,status,RH,status,SR,status,TA,status,DirAvg,status,SpdAvg,
2009-03-15, 00:00:04,VALID,1001.28,VALID,0,VALID,94.0656,VALID,0.112286,VALID,24.0134,VALID,55,VALID,0.3875,
2009-03-15, 00:01:04,VALID,1001.27,VALID,0,VALID,94.0656,VALID,0,VALID,24.0134,VALID,55,VALID,0.144141,
2009-03-15, 00:02:04,VALID,1001.28,VALID,0,VALID,94.0656,VALID,0,VALID,24.0134,VALID,55,VALID,0,
2009-03-15, 00:03:04,VALID,1001.28,VALID,0,VALID,94.0732,VALID,0,VALID,24.0134,VALID,55,VALID,0,
2009-03-15, 00:04:04,VALID,1001.29,VALID,0,VALID,94.0885,VALID,0.112286,VALID,24.0134,VALID,55,VALID,0.114063,
2009-03-15, 00:05:04,VALID,1001.27,VALID,0,VALID,94.0808,VALID,0,VALID,23.9939,VALID,55,VALID,0,
2009-03-15, 00:06:04,VALID,1001.28,VALID,0,VALID,94.0732,VALID,0,VALID,23.9939,VALID,55,VALID,0,
2009-03-15, 00:07:04,VALID,1001.26,VALID,0,VALID,94.0885,VALID,0,VALID,23.9939,VALID,55,VALID,0,
2009-03-15, 00:08:04,VALID,1001.27,VALID,0,VALID,94.1648,VALID,0,VALID,23.9921,VALID,55,VALID,0.419531,
2009-03-15, 00:09:04,VALID,1001.23,VALID,0,VALID,94.2029,VALID,0,VALID,24.0134,VALID,55,VALID,0.558594,
2009-03-15, 00:10:04,VALID,1001.21,VALID,0,VALID,94.2716,VALID,0,VALID,24.0329,VALID,58,VALID,0.824219,
2009-03-15, 00:11:04,VALID,1001.19,VALID,0,VALID,94.264,VALID,0,VALID,24.0525,VALID,61,VALID,0.8875,
2009-03-15, 00:12:04,VALID,1001.17,VALID,0,VALID,94.1877,VALID,0,VALID,24.0543,VALID,60,VALID,0.873438,
2009-03-15, 00:13:04,VALID,1001.13,VALID,0,VALID,94.1724,VALID,0,VALID,24.0525,VALID,58,VALID,0.786719,
2009-03-15, 00:14:04,VALID,1001.08,VALID,0,VALID,94.1419,VALID,0,VALID,24.0525,VALID,68,VALID,0.805859,
2009-03-15, 00:15:04,VALID,1001.05,VALID,0,VALID,94.0808,VALID,0,VALID,24.0525,VALID,68,VALID,0.939453,
2009-03-15, 00:16:04,VALID,1001.06,VALID,0,VALID,94.0961,VALID,0,VALID,24.0525,VALID,69,VALID,0.738281,
2009-03-15, 00:17:04,VALID,1001.01,VALID,0,VALID,94.0274,VALID,0,VALID,24.0525,VALID,65,VALID,0.863281,
2009-03-15, 00:18:04,VALID,1001.04,VALID,0,VALID,94.0045,VALID,0,VALID,24.0525,VALID,51,VALID,0.785547,
2009-03-15, 00:19:04,VALID,1001.05,VALID,0,VALID,94.0656,VALID,0,VALID,24.0525,VALID,46,VALID,0.398047,
2009-03-15, 00:20:04,VALID,1001.09,VALID,0,VALID,94.0961,VALID,0,VALID,24.0525,VALID,336,VALID,0.680859,
2009-03-15, 00:21:04,VALID,1001.25,VALID,0,VALID,94.1495,VALID,0,VALID,24.072,VALID,273,VALID,1.66406,
2009-03-15, 00:22:04,VALID,1001.3,VALID,0,VALID,93.7451,VALID,0,VALID,24.0329,VALID,253,VALID,2.66055,
2009-03-15, 00:23:04,VALID,1001.32,VALID,0,VALID,91.914,VALID,0,VALID,24.0525,VALID,265,VALID,2.45117,
2009-03-15, 00:24:04,VALID,1001.3,VALID,0,VALID,90.8383,VALID,0,VALID,24.1305,VALID,269,VALID,2.39727,
2009-03-15, 00:25:04,VALID,1001.3,VALID,0.5,VALID,90.7849,VALID,0.112286,VALID,24.15,VALID,259,VALID,2.32031,
2009-03-15, 00:26:04,VALID,1001.26,VALID,0.5,VALID,90.6323,VALID,0,VALID,24.0311,VALID,318,VALID,2.43594,
2009-03-15, 00:27:04,VALID,1001.24,VALID,0,VALID,91.0214,VALID,0.112286,VALID,23.9939,VALID,304,VALID,2.65547,
2009-03-15, 00:28:04,VALID,1001.2,VALID,0,VALID,91.4639,VALID,0.112286,VALID,23.9354,VALID,249,VALID,1.09414,
2009-03-15, 00:29:04,VALID,1001.18,VALID,0,VALID,91.6851,VALID,0.112286,VALID,23.8963,VALID,238,VALID,0.868359,
2009-03-15, 00:30:04,VALID,1001.15,VALID,0,VALID,90.8611,VALID,0,VALID,23.8378,VALID,238,VALID,2.01172,
2009-03-15, 00:31:04,VALID,1001.16,VALID,0,VALID,91.3266,VALID,0,VALID,23.8768,VALID,218,VALID,1.31641,
2009-03-15, 00:32:04,VALID,1001.2,VALID,0,VALID,91.029,VALID,0.112286,VALID,23.8573,VALID,240,VALID,2.24531,
2009-03-15, 00:33:04,VALID,1001.19,VALID,0,VALID,89.938,VALID,0,VALID,23.8378,VALID,232,VALID,4.40781,
2009-03-15, 00:34:04,VALID,1001.19,VALID,0,VALID,89.8922,VALID,0,VALID,23.7988,VALID,277,VALID,3.27187,
2009-03-15, 00:35:04,VALID,1001.22,VALID,0.5,VALID,90.3805,VALID,0,VALID,23.7207,VALID,248,VALID,3.1125,
2009-03-15, 00:36:04,VALID,1001.13,VALID,0,VALID,89.8846,VALID,0,VALID,23.6232,VALID,252,VALID,3.98477,
2009-03-15, 00:37:04,VALID,1001.16,VALID,0.5,VALID,90.9146,VALID,0,VALID,23.5859,VALID,218,VALID,1.0668,
2009-03-15, 00:38:04,VALID,1001.17,VALID,0,VALID,91.1129,VALID,0,VALID,23.5274,VALID,232,VALID,3.4375,
2009-03-15, 00:39:04,VALID,1001.17,VALID,0,VALID,91.235,VALID,0,VALID,23.4884,VALID,264,VALID,2.79063,
2009-03-15, 00:40:04,VALID,1001.16,VALID,0,VALID,91.3189,VALID,0,VALID,23.4103,VALID,272,VALID,3.28125,
2009-03-15, 00:41:04,VALID,1001.16,VALID,0,VALID,91.6623,VALID,0,VALID,23.3713,VALID,241,VALID,1.9375,
2009-03-15, 00:42:04,VALID,1001.1,VALID,0,VALID,91.9064,VALID,0,VALID,23.3518,VALID,274,VALID,1.97695,
2009-03-15, 00:43:04,VALID,1001.1,VALID,0,VALID,91.647,VALID,0,VALID,23.295,VALID,273,VALID,4.08047,
2009-03-15, 00:44:04,VALID,1001.02,VALID,0,VALID,91.3647,VALID,0,VALID,23.2737,VALID,260,VALID,3.71172,
2009-03-15, 00:45:04,VALID,1001.06,VALID,0,VALID,91.6623,VALID,0,VALID,23.2932,VALID,236,VALID,2.19414,
2009-03-15, 00:46:04,VALID,1001,VALID,0,VALID,91.6851,VALID,0,VALID,23.2542,VALID,273,VALID,1.44766,
2009-03-15, 00:47:04,VALID,1001.03,VALID,0,VALID,91.6546,VALID,0,VALID,23.2347,VALID,251,VALID,1.97852,
2009-03-15, 00:48:04,VALID,1001,VALID,0,VALID,91.6546,VALID,0,VALID,23.1939,VALID,262,VALID,2.14961,
2009-03-15, 00:49:04,VALID,1000.98,VALID,0,VALID,91.6699,VALID,0,VALID,23.1957,VALID,248,VALID,1.75781,
2009-03-15, 00:50:04,VALID,1001,VALID,0,VALID,91.2121,VALID,0,VALID,23.1957,VALID,247,VALID,3.12188,
2009-03-15, 00:51:04,VALID,1000.95,VALID,0,VALID,91.2274,VALID,0,VALID,23.1566,VALID,270,VALID,1.95195,
2009-03-15, 00:52:04,VALID,1000.98,VALID,0,VALID,91.3342,VALID,0,VALID,23.1371,VALID,287,VALID,2.4375,
2009-03-15, 00:53:04,VALID,1000.97,VALID,0,VALID,90.762,VALID,0,VALID,23.0981,VALID,243,VALID,2.80391,
2009-03-15, 00:54:04,VALID,1000.93,VALID,0,VALID,90.6933,VALID,0,VALID,23.0981,VALID,296,VALID,2.8168,
2009-03-15, 00:55:04,VALID,1000.98,VALID,0,VALID,90.7543,VALID,0,VALID,23.0786,VALID,268,VALID,2.33828,
2009-03-15, 00:56:04,VALID,1000.95,VALID,0,VALID,90.8306,VALID,0,VALID,23.0591,VALID,250,VALID,2.57813,
2009-03-15, 00:57:04,VALID,1000.93,VALID,0,VALID,90.7467,VALID,0,VALID,23.0396,VALID,278,VALID,3.18242,
2009-03-15, 00:58:04,VALID,1000.97,VALID,0,VALID,90.8535,VALID,0,VALID,23.0591,VALID,267,VALID,2.18633,
2009-03-15, 00:59:04,VALID,1000.96,VALID,0.5,VALID,91.0519,VALID,0,VALID,23.0396,VALID,216,VALID,1.3793,
2009-03-15, 01:00:04,VALID,1000.93,VALID,0,VALID,91.1511,VALID,0,VALID,23.0201,VALID,255,VALID,0.978906,
2009-03-15, 01:01:04,VALID,1001,VALID,0,VALID,91.2579,VALID,0,VALID,23.0006,VALID,241,VALID,2.00547,
2009-03-15, 01:02:04,VALID,1000.95,VALID,0,VALID,91.4257,VALID,0,VALID,23.0006,VALID,253,VALID,1.62344,
2009-03-15, 01:03:04,VALID,1000.96,VALID,0,VALID,91.3037,VALID,0,VALID,22.9811,VALID,232,VALID,2.44727,
2009-03-15, 01:04:04,VALID,1001,VALID,0,VALID,91.4944,VALID,0,VALID,22.9811,VALID,265,VALID,1.01953,
2009-03-15, 01:05:04,VALID,1001,VALID,0,VALID,91.235,VALID,0,VALID,22.9615,VALID,293,VALID,3.14258,
2009-03-15, 01:06:04,VALID,1000.99,VALID,0,VALID,90.9222,VALID,0,VALID,22.9811,VALID,268,VALID,2.22617,
2009-03-15, 01:07:04,VALID,1000.92,VALID,0,VALID,90.6704,VALID,0,VALID,23.0201,VALID,232,VALID,2.18398,
2009-03-15, 01:08:04,VALID,1000.92,VALID,0,VALID,90.5178,VALID,0,VALID,23.0396,VALID,283,VALID,2.64648,
2009-03-15, 01:09:04,VALID,1000.95,VALID,0,VALID,90.3347,VALID,0,VALID,23.0396,VALID,243,VALID,1.79453,
2009-03-15, 01:10:04,VALID,1000.94,VALID,0,VALID,90.4034,VALID,0,VALID,23.0396,VALID,267,VALID,1.70938,
2009-03-15, 01:11:04,VALID,1000.91,VALID,0,VALID,90.4797,VALID,0,VALID,23.0396,VALID,264,VALID,1.16133,
2009-03-15, 01:12:04,VALID,1000.96,VALID,0,VALID,90.7391,VALID,0,VALID,23.0201,VALID,236,VALID,0.869531,
2009-03-15, 01:13:04,VALID,1000.93,VALID,0,VALID,90.6857,VALID,0,VALID,23.0006,VALID,299,VALID,1.98867,
2009-03-15, 01:14:04,VALID,1000.95,VALID,0,VALID,90.7925,VALID,0,VALID,23.0006,VALID,260,VALID,1.30781,
2009-03-15, 01:15:04,VALID,1000.95,VALID,0,VALID,90.9222,VALID,0,VALID,23.0023,VALID,301,VALID,1.41445,
2009-03-15, 01:16:04,VALID,1000.94,VALID,0,VALID,91.1358,VALID,0,VALID,22.9811,VALID,275,VALID,0.74375,
2009-03-15, 01:17:04,VALID,1000.91,VALID,0,VALID,91.1892,VALID,0,VALID,22.9615,VALID,281,VALID,0.966016,
2009-03-15, 01:18:04,VALID,1000.9,VALID,0,VALID,91.441,VALID,0,VALID,22.9615,VALID,244,VALID,0.548047,
2009-03-15, 01:19:04,VALID,1000.81,VALID,0,VALID,91.3723,VALID,0,VALID,22.9598,VALID,284,VALID,0.787109,
2009-03-15, 01:20:04,VALID,1000.77,VALID,0,VALID,91.4715,VALID,0,VALID,22.9403,VALID,275,VALID,1.18438,
2009-03-15, 01:21:04,VALID,1000.7,VALID,0,VALID,91.502,VALID,0,VALID,22.9615,VALID,250,VALID,1.0125,
2009-03-15, 01:22:04,VALID,1000.73,VALID,0,VALID,91.4486,VALID,0,VALID,22.9811,VALID,228,VALID,0.755859,
2009-03-15, 01:23:04,VALID,1000.67,VALID,0,VALID,91.5631,VALID,0,VALID,23.0006,VALID,245,VALID,1.91484,
2009-03-15, 01:24:04,VALID,1000.63,VALID,0,VALID,91.3647,VALID,0,VALID,23.0413,VALID,236,VALID,1.58867,
2009-03-15, 01:25:04,VALID,1000.56,VALID,0,VALID,91.4105,VALID,0,VALID,23.0591,VALID,244,VALID,0.773438,
2009-03-15, 01:26:04,VALID,1000.55,VALID,0,VALID,91.3189,VALID,0,VALID,23.0573,VALID,231,VALID,0.973047,
2009-03-15, 01:27:04,VALID,1000.5,VALID,0,VALID,91.0977,VALID,0,VALID,23.0769,VALID,255,VALID,1.61563,
2009-03-15, 01:28:04,VALID,1000.5,VALID,0,VALID,91.1434,VALID,0,VALID,23.0964,VALID,236,VALID,1.6168,
2009-03-15, 01:29:04,VALID,1000.44,VALID,0,VALID,90.5865,VALID,0,VALID,23.1566,VALID,217,VALID,1.87812,
2009-03-15, 01:30:04,VALID,1000.41,VALID,0,VALID,90.6857,VALID,0,VALID,23.1762,VALID,226,VALID,0.583594,
2009-03-15, 01:31:04,VALID,1000.42,VALID,0,VALID,90.7085,VALID,0,VALID,23.1762,VALID,226,VALID,2.25352,
2009-03-15, 01:32:04,VALID,1000.4,VALID,0,VALID,90.6933,VALID,0,VALID,23.1957,VALID,254,VALID,1.1832,
2009-03-15, 01:33:04,VALID,1000.37,VALID,0,VALID,90.8535,VALID,0,VALID,23.2152,VALID,205,VALID,1.5375,
2009-03-15, 01:34:04,VALID,1000.39,VALID,0,VALID,90.556,VALID,0,VALID,23.2152,VALID,250,VALID,1.17969,
2009-03-15, 01:35:04,VALID,1000.38,VALID,0,VALID,90.6704,VALID,0,VALID,23.2152,VALID,212,VALID,1.87109,
2009-03-15, 01:36:04,VALID,1000.33,VALID,0,VALID,90.5941,VALID,0,VALID,23.2152,VALID,235,VALID,1.5125,
2009-03-15, 01:37:04,VALID,1000.27,VALID,0,VALID,90.472,VALID,0,VALID,23.2152,VALID,201,VALID,2.16289,
2009-03-15, 01:38:04,VALID,1000.27,VALID,0,VALID,90.144,VALID,0,VALID,23.2932,VALID,244,VALID,1.61719,
2009-03-15, 01:39:04,VALID,1000.27,VALID,0,VALID,90.411,VALID,0,VALID,23.2932,VALID,206,VALID,1.56484,
2009-03-15, 01:40:04,VALID,1000.25,VALID,0,VALID,90.2584,VALID,0,VALID,23.2737,VALID,283,VALID,0.712109,
2009-03-15, 01:41:04,VALID,1000.27,VALID,0,VALID,90.3423,VALID,0,VALID,23.2737,VALID,228,VALID,0.999609,
2009-03-15, 01:42:04,VALID,1000.25,VALID,0,VALID,90.3576,VALID,0,VALID,23.2932,VALID,260,VALID,1.03633,
2009-03-15, 01:43:04,VALID,1000.29,VALID,0,VALID,90.6628,VALID,0,VALID,23.2737,VALID,342,VALID,0.941016,
2009-03-15, 01:44:04,VALID,1000.26,VALID,0,VALID,90.7543,VALID,0,VALID,23.2542,VALID,342,VALID,0.226563,
2009-03-15, 01:45:04,VALID,1000.23,VALID,0,VALID,90.9909,VALID,0,VALID,23.2152,VALID,342,VALID,0.557031,
2009-03-15, 01:46:04,VALID,1000.21,VALID,0,VALID,90.9756,VALID,0,VALID,23.1957,VALID,25,VALID,0.500391,
2009-03-15, 01:47:04,VALID,1000.21,VALID,0,VALID,90.9451,VALID,0,VALID,23.1957,VALID,316,VALID,1.11875,
2009-03-15, 01:48:04,VALID,1000.19,VALID,0,VALID,91.0671,VALID,0,VALID,23.1762,VALID,313,VALID,0.558594,
2009-03-15, 01:49:04,VALID,1000.15,VALID,0,VALID,91.2731,VALID,0,VALID,23.1762,VALID,333,VALID,0.655078,
2009-03-15, 01:50:04,VALID,1000.15,VALID,0,VALID,91.4028,VALID,0,VALID,23.1549,VALID,335,VALID,0.163281,
2009-03-15, 01:51:04,VALID,1000.11,VALID,0,VALID,91.4715,VALID,0,VALID,23.1566,VALID,335,VALID,0.143359,
2009-03-15, 01:52:04,VALID,1000.11,VALID,0,VALID,91.7385,VALID,0,VALID,23.1159,VALID,335,VALID,0,
2009-03-15, 01:53:04,VALID,1000.08,VALID,0,VALID,91.7614,VALID,0.112286,VALID,23.1159,VALID,335,VALID,0.0765625,
2009-03-15, 01:54:04,VALID,1000.03,VALID,0,VALID,91.586,VALID,0,VALID,23.1176,VALID,335,VALID,0.232812,
2009-03-15, 01:55:04,VALID,1000.02,VALID,0,VALID,91.5936,VALID,0,VALID,23.0964,VALID,335,VALID,0.230078,
2009-03-15, 01:56:04,VALID,1000.01,VALID,0,VALID,91.502,VALID,0,VALID,23.0769,VALID,335,VALID,0.216406,
2009-03-15, 01:57:04,VALID,999.986,VALID,0,VALID,91.4944,VALID,0,VALID,23.0964,VALID,335,VALID,0.533984,
2009-03-15, 01:58:04,VALID,999.957,VALID,0,VALID,91.6546,VALID,0,VALID,23.1176,VALID,51,VALID,0.685547,
2009-03-15, 01:59:04,VALID,999.954,VALID,0,VALID,91.5707,VALID,0,VALID,23.1371,VALID,54,VALID,0.126172,
2009-03-15, 02:00:04,VALID,999.888,VALID,0,VALID,91.5554,VALID,0,VALID,23.1371,VALID,54,VALID,0.273047,
2009-03-15, 02:01:04,VALID,999.913,VALID,0,VALID,91.6623,VALID,0,VALID,23.1566,VALID,55,VALID,0.530078,
2009-03-15, 02:02:04,VALID,999.934,VALID,0,VALID,91.7767,VALID,0,VALID,23.1549,VALID,58,VALID,0.329688,
2009-03-15, 02:03:04,VALID,999.918,VALID,0,VALID,91.4639,VALID,0,VALID,23.1566,VALID,58,VALID,0.259766,
2009-03-15, 02:04:04,VALID,999.946,VALID,0,VALID,91.3113,VALID,0,VALID,23.1566,VALID,58,VALID,0.145313,
2009-03-15, 02:05:04,VALID,999.949,VALID,0,VALID,91.2884,VALID,0,VALID,23.1762,VALID,58,VALID,0.1125,
2009-03-15, 02:06:04,VALID,999.97,VALID,0,VALID,91.3723,VALID,0,VALID,23.1762,VALID,58,VALID,0.2,
2009-03-15, 02:07:04,VALID,1000,VALID,0,VALID,91.6394,VALID,0,VALID,23.1744,VALID,56,VALID,0.278516,
2009-03-15, 02:08:04,VALID,999.982,VALID,0,VALID,91.6546,VALID,0,VALID,23.1957,VALID,56,VALID,0.248828,
2009-03-15, 02:09:04,VALID,999.994,VALID,0,VALID,91.6851,VALID,0,VALID,23.1939,VALID,56,VALID,0.2375,
2009-03-15, 02:10:04,VALID,999.963,VALID,0,VALID,91.998,VALID,0,VALID,23.2152,VALID,56,VALID,0.149609,
2009-03-15, 02:11:04,VALID,999.98,VALID,0,VALID,92.1124,VALID,0,VALID,23.2152,VALID,56,VALID,0.283594,
2009-03-15, 02:12:04,VALID,999.983,VALID,0,VALID,92.0132,VALID,0,VALID,23.1957,VALID,56,VALID,0.0996094,
2009-03-15, 02:13:04,VALID,999.985,VALID,0,VALID,91.9598,VALID,0,VALID,23.1744,VALID,56,VALID,0.184766,
2009-03-15, 02:14:04,VALID,999.954,VALID,0,VALID,91.9827,VALID,0,VALID,23.1549,VALID,56,VALID,0,
2009-03-15, 02:15:04,VALID,999.942,VALID,0,VALID,92.204,VALID,0,VALID,23.1549,VALID,56,VALID,0.0683594,
2009-03-15, 02:16:04,VALID,999.91,VALID,0,VALID,92.2268,VALID,0,VALID,23.1566,VALID,56,VALID,0.220313,
2009-03-15, 02:17:04,VALID,999.907,VALID,0,VALID,92.2116,VALID,0,VALID,23.1354,VALID,56,VALID,0.292969,
2009-03-15, 02:18:04,VALID,999.896,VALID,0,VALID,91.9598,VALID,0,VALID,23.1566,VALID,56,VALID,0.370703,
2009-03-15, 02:19:04,VALID,999.891,VALID,0,VALID,91.7462,VALID,0,VALID,23.1566,VALID,57,VALID,0.482422,
2009-03-15, 02:20:04,VALID,999.886,VALID,0,VALID,91.6775,VALID,0,VALID,23.1762,VALID,57,VALID,0.515234,
2009-03-15, 02:21:04,VALID,999.864,VALID,0,VALID,91.6928,VALID,0,VALID,23.1762,VALID,62,VALID,0.653125,
2009-03-15, 02:22:04,VALID,999.831,VALID,0,VALID,91.914,VALID,0,VALID,23.2347,VALID,62,VALID,1.12539,
2009-03-15, 02:23:04,VALID,999.809,VALID,0,VALID,91.9369,VALID,0,VALID,23.2329,VALID,65,VALID,1.26641,
2009-03-15, 02:24:04,VALID,999.812,VALID,0,VALID,91.7996,VALID,0,VALID,23.2737,VALID,74,VALID,0.953125,
2009-03-15, 02:25:04,VALID,999.804,VALID,0,VALID,92.0285,VALID,0,VALID,23.2932,VALID,69,VALID,1.07813,
2009-03-15, 02:26:04,VALID,999.76,VALID,0,VALID,92.2497,VALID,0,VALID,23.311,VALID,71,VALID,1.08633,
2009-03-15, 02:27:04,VALID,999.77,VALID,0,VALID,92.0819,VALID,0,VALID,23.3127,VALID,61,VALID,0.6375,
2009-03-15, 02:28:04,VALID,999.749,VALID,0,VALID,92.3031,VALID,0,VALID,23.3127,VALID,56,VALID,0.823828,
2009-03-15, 02:29:04,VALID,999.736,VALID,0,VALID,92.471,VALID,0,VALID,23.3323,VALID,49,VALID,0.482812,
2009-03-15, 02:30:04,VALID,999.738,VALID,0,VALID,92.5473,VALID,0,VALID,23.311,VALID,49,VALID,0.253906,
2009-03-15, 02:31:04,VALID,999.694,VALID,0,VALID,92.5778,VALID,0,VALID,23.3127,VALID,50,VALID,0.421094,
2009-03-15, 02:32:04,VALID,999.678,VALID,0,VALID,92.5549,VALID,0,VALID,23.2737,VALID,76,VALID,1.1582,
2009-03-15, 02:33:04,VALID,999.677,VALID,0,VALID,92.7609,VALID,0,VALID,23.2329,VALID,78,VALID,1.11641,
2009-03-15, 02:34:04,VALID,999.644,VALID,0,VALID,92.7609,VALID,0,VALID,23.2134,VALID,64,VALID,0.875,
2009-03-15, 02:35:04,VALID,999.638,VALID,0,VALID,92.7228,VALID,0,VALID,23.1957,VALID,71,VALID,0.901172,
2009-03-15, 02:36:04,VALID,999.601,VALID,0,VALID,92.7304,VALID,0,VALID,23.1549,VALID,80,VALID,0.728906,
2009-03-15, 02:37:04,VALID,999.57,VALID,0,VALID,92.8677,VALID,0,VALID,23.1371,VALID,86,VALID,0.619141,
2009-03-15, 02:38:04,VALID,999.566,VALID,0,VALID,92.9822,VALID,0,VALID,23.1176,VALID,86,VALID,0.391406,
2009-03-15, 02:39:04,VALID,999.525,VALID,0,VALID,93.0127,VALID,0,VALID,23.1176,VALID,87,VALID,0.256641,
2009-03-15, 02:40:04,VALID,999.486,VALID,0,VALID,93.0814,VALID,0,VALID,23.1176,VALID,87,VALID,0,
2009-03-15, 02:41:04,VALID,999.499,VALID,0,VALID,93.0966,VALID,0,VALID,23.0981,VALID,99,VALID,0.587109,
2009-03-15, 02:42:04,VALID,999.502,VALID,0,VALID,93.1958,VALID,0,VALID,23.0981,VALID,99,VALID,0.391797,
2009-03-15, 02:43:04,VALID,999.508,VALID,0,VALID,93.356,VALID,0,VALID,23.0964,VALID,99,VALID,0.353125,
2009-03-15, 02:44:04,VALID,999.459,VALID,0,VALID,93.2721,VALID,0,VALID,23.0981,VALID,99,VALID,0.0375,
2009-03-15, 02:45:04,VALID,999.448,VALID,0,VALID,93.3026,VALID,0,VALID,23.0573,VALID,99,VALID,0,
2009-03-15, 02:46:04,VALID,999.445,VALID,0,VALID,93.2721,VALID,0,VALID,23.0591,VALID,99,VALID,0.149219,
2009-03-15, 02:47:04,VALID,999.428,VALID,0,VALID,93.2034,VALID,0,VALID,23.0591,VALID,99,VALID,0.103125,
2009-03-15, 02:48:04,VALID,999.414,VALID,0,VALID,93.1729,VALID,0,VALID,23.0201,VALID,99,VALID,0.00585938,
2009-03-15, 02:49:04,VALID,999.404,VALID,0,VALID,93.2034,VALID,0,VALID,23.0183,VALID,99,VALID,0.00898437,
2009-03-15, 02:50:04,VALID,999.415,VALID,0,VALID,93.1882,VALID,0,VALID,23.0201,VALID,99,VALID,0.412891,
2009-03-15, 02:51:04,VALID,999.404,VALID,0,VALID,93.1043,VALID,0,VALID,23.0006,VALID,99,VALID,0.29375,
2009-03-15, 02:52:04,VALID,999.443,VALID,0,VALID,93.089,VALID,0,VALID,23.0201,VALID,99,VALID,0.191016,
2009-03-15, 02:53:04,VALID,999.441,VALID,0,VALID,93.028,VALID,0,VALID,23.0201,VALID,99,VALID,0.153516,
2009-03-15, 02:54:04,VALID,999.442,VALID,0,VALID,93.0508,VALID,0,VALID,23.0591,VALID,81,VALID,0.662891,
2009-03-15, 02:55:04,VALID,999.415,VALID,0,VALID,93.0585,VALID,0,VALID,23.0591,VALID,54,VALID,0.832422,
2009-03-15, 02:56:04,VALID,999.436,VALID,0,VALID,93.0814,VALID,0,VALID,23.0786,VALID,67,VALID,0.910156,
2009-03-15, 02:57:04,VALID,999.424,VALID,0,VALID,93.1424,VALID,0,VALID,23.0786,VALID,57,VALID,0.698047,
2009-03-15, 02:58:04,VALID,999.436,VALID,0,VALID,93.15,VALID,0,VALID,23.0981,VALID,48,VALID,1.0168,
2009-03-15, 02:59:04,VALID,999.455,VALID,0,VALID,93.0051,VALID,0,VALID,23.0981,VALID,62,VALID,1.01602,
2009-03-15, 03:00:04,VALID,999.404,VALID,0,VALID,93.1195,VALID,0,VALID,23.0769,VALID,66,VALID,0.919922,
2009-03-15, 03:01:04,VALID,999.439,VALID,0,VALID,93.1577,VALID,0,VALID,23.0981,VALID,78,VALID,1.0668,
2009-03-15, 03:02:04,VALID,999.452,VALID,0,VALID,93.0203,VALID,0,VALID,23.0981,VALID,77,VALID,0.946094,
2009-03-15, 03:03:04,VALID,999.454,VALID,0,VALID,92.9745,VALID,0,VALID,23.0786,VALID,78,VALID,0.641797,
2009-03-15, 03:04:04,VALID,999.456,VALID,0,VALID,93.2187,VALID,0,VALID,23.0786,VALID,84,VALID,0.947266,
2009-03-15, 03:05:04,VALID,999.426,VALID,0,VALID,93.2645,VALID,0,VALID,23.0981,VALID,74,VALID,1.17305,
2009-03-15, 03:06:04,VALID,999.408,VALID,0,VALID,92.9288,VALID,0,VALID,23.0786,VALID,74,VALID,0.977344,
2009-03-15, 03:07:04,VALID,999.398,VALID,0,VALID,92.8906,VALID,0,VALID,23.0769,VALID,87,VALID,0.962891,
2009-03-15, 03:08:04,VALID,999.355,VALID,0,VALID,93.0737,VALID,0,VALID,23.1176,VALID,86,VALID,0.841016,
2009-03-15, 03:09:04,VALID,999.364,VALID,0,VALID,92.9745,VALID,0,VALID,23.1371,VALID,79,VALID,0.569531,
2009-03-15, 03:10:04,VALID,999.351,VALID,0,VALID,92.9364,VALID,0,VALID,23.1371,VALID,79,VALID,0.358984,
2009-03-15, 03:11:04,VALID,999.367,VALID,0,VALID,92.9593,VALID,0,VALID,23.1371,VALID,66,VALID,0.40625,
2009-03-15, 03:12:04,VALID,999.36,VALID,0,VALID,92.9745,VALID,0,VALID,23.1371,VALID,66,VALID,0.297656,
2009-03-15, 03:13:04,VALID,999.379,VALID,0,VALID,92.9669,VALID,0,VALID,23.1371,VALID,66,VALID,0.521484,
2009-03-15, 03:14:04,VALID,999.36,VALID,0,VALID,92.8525,VALID,0,VALID,23.1371,VALID,65,VALID,0.617578,
2009-03-15, 03:15:04,VALID,999.387,VALID,0,VALID,92.9364,VALID,0,VALID,23.1371,VALID,65,VALID,0.594922,
2009-03-15, 03:16:04,VALID,999.416,VALID,0,VALID,92.9669,VALID,0,VALID,23.1566,VALID,63,VALID,0.779297,
2009-03-15, 03:17:04,VALID,999.401,VALID,0,VALID,93.2111,VALID,0,VALID,23.1762,VALID,65,VALID,0.999609,
2009-03-15, 03:18:04,VALID,999.427,VALID,0,VALID,93.1577,VALID,0,VALID,23.1762,VALID,75,VALID,1.15313,
2009-03-15, 03:19:04,VALID,999.408,VALID,0,VALID,93.0508,VALID,0,VALID,23.1566,VALID,74,VALID,1.05117,
2009-03-15, 03:20:04,VALID,999.402,VALID,0,VALID,93.2721,VALID,0,VALID,23.1566,VALID,61,VALID,0.875781,
2009-03-15, 03:21:04,VALID,999.37,VALID,0,VALID,93.3331,VALID,0,VALID,23.1762,VALID,57,VALID,0.832422,
2009-03-15, 03:22:04,VALID,999.415,VALID,0,VALID,93.2721,VALID,0,VALID,23.1549,VALID,63,VALID,1.23125,
2009-03-15, 03:23:04,VALID,999.404,VALID,0,VALID,93.0051,VALID,0,VALID,23.1566,VALID,67,VALID,1.36094,
2009-03-15, 03:24:04,VALID,999.391,VALID,0,VALID,92.9364,VALID,0,VALID,23.1549,VALID,65,VALID,1.3543,
2009-03-15, 03:25:04,VALID,999.404,VALID,0,VALID,92.9364,VALID,0,VALID,23.2152,VALID,67,VALID,1.06641,
2009-03-15, 03:26:04,VALID,999.412,VALID,0,VALID,92.883,VALID,0,VALID,23.2134,VALID,69,VALID,0.808203,
2009-03-15, 03:27:04,VALID,999.423,VALID,0,VALID,92.4939,VALID,0,VALID,23.2347,VALID,74,VALID,1.12266,
2009-03-15, 03:28:04,VALID,999.439,VALID,0,VALID,92.6388,VALID,0,VALID,23.2737,VALID,87,VALID,0.785937,
2009-03-15, 03:29:04,VALID,999.444,VALID,0,VALID,92.6694,VALID,0,VALID,23.3127,VALID,78,VALID,0.612109,
2009-03-15, 03:30:04,VALID,999.498,VALID,0,VALID,92.4863,VALID,0,VALID,23.334,VALID,41,VALID,0.473047,
2009-03-15, 03:31:04,VALID,999.497,VALID,0,VALID,92.3794,VALID,0,VALID,23.3127,VALID,28,VALID,0.503516,
2009-03-15, 03:32:04,VALID,999.485,VALID,0,VALID,92.3794,VALID,0,VALID,23.3323,VALID,4,VALID,0.328125,
2009-03-15, 03:33:04,VALID,999.547,VALID,0,VALID,92.3337,VALID,0,VALID,23.3518,VALID,4,VALID,0,
2009-03-15, 03:34:04,VALID,999.577,VALID,0,VALID,92.2497,VALID,0,VALID,23.3518,VALID,4,VALID,0.0320312,
2009-03-15, 03:35:04,VALID,999.564,VALID,0,VALID,92.1734,VALID,0,VALID,23.3305,VALID,4,VALID,0.417188,
2009-03-15, 03:36:04,VALID,999.566,VALID,0,VALID,92.0209,VALID,0,VALID,23.3713,VALID,1,VALID,0.881641,
2009-03-15, 03:37:04,VALID,999.532,VALID,0,VALID,92.0514,VALID,0.112286,VALID,23.389,VALID,11,VALID,0.730859,
2009-03-15, 03:38:04,VALID,999.534,VALID,0,VALID,92.204,VALID,0,VALID,23.4298,VALID,19,VALID,1.00156,
2009-03-15, 03:39:04,VALID,999.555,VALID,0,VALID,92.5015,VALID,0,VALID,23.4493,VALID,28,VALID,1.46641,
2009-03-15, 03:40:04,VALID,999.531,VALID,0,VALID,92.6465,VALID,0,VALID,23.4493,VALID,39,VALID,0.956641,
2009-03-15, 03:41:04,VALID,999.558,VALID,0,VALID,92.6083,VALID,0,VALID,23.4493,VALID,34,VALID,0.938672,
2009-03-15, 03:42:04,VALID,999.542,VALID,0,VALID,92.7457,VALID,0,VALID,23.4493,VALID,47,VALID,0.894141,
2009-03-15, 03:43:04,VALID,999.51,VALID,0,VALID,92.8296,VALID,0,VALID,23.4493,VALID,54,VALID,1.3,
2009-03-15, 03:44:04,VALID,999.481,VALID,0,VALID,92.8754,VALID,0,VALID,23.4493,VALID,58,VALID,1.57383,
2009-03-15, 03:45:04,VALID,999.457,VALID,0,VALID,92.9822,VALID,0,VALID,23.4688,VALID,68,VALID,1.41992,
2009-03-15, 03:46:04,VALID,999.447,VALID,0,VALID,92.8906,VALID,0,VALID,23.4298,VALID,71,VALID,1.79688,